Time[GMT],salinity[psu](50m),sigma_t[kg/m^3](50m),conductivity[msiemens/cm](50m),temperature[C](50m)
2014-06-01 02:00,32.134,25.274,31.945,6.12
2014-06-01 03:00,32.161,25.292,31.984,6.14
2014-06-01 04:00,32.173,25.299,32.016,6.17
2014-06-01 05:00,32.080,25.230,31.902,6.13
2014-06-01 06:00,32.143,25.279,31.961,6.14
2014-06-01 07:00,32.214,25.323,32.109,6.23
2014-06-01 08:00,32.184,25.307,32.030,6.17
2014-06-01 09:00,32.170,25.303,31.973,6.12
2014-06-01 10:00,32.133,25.270,31.966,6.15
2014-06-01 11:00,32.148,25.274,32.032,6.21
2014-06-01 12:00,32.107,25.247,31.959,6.17
2014-06-01 13:00,32.128,25.264,31.972,6.16
2014-06-01 14:00,32.177,25.303,32.010,6.16
2014-06-01 15:00,32.181,25.309,31.997,6.14
2014-06-01 16:00,32.204,25.328,32.016,6.14
2014-06-01 17:00,32.253,25.351,32.166,6.26
2014-06-01 18:00,32.236,25.325,32.235,6.36
2014-06-01 19:00,32.256,25.339,32.266,6.37
2014-06-01 20:00,32.243,25.347,32.129,6.23
2014-06-01 21:00,32.228,25.344,32.056,6.16
2014-06-01 22:00,32.166,25.294,32.007,6.16
2014-06-01 23:00,32.174,25.300,32.015,6.17
2014-06-02 00:00,32.169,25.294,32.030,6.19
2014-06-02 01:00,32.166,25.290,32.035,6.20
2014-06-02 02:00,32.183,25.305,32.038,6.18
2014-06-02 03:00,32.191,25.311,32.047,6.18
2014-06-02 04:00,32.221,25.337,32.062,6.17
2014-06-02 05:00,32.248,25.360,32.068,6.15
2014-06-02 06:00,32.255,25.364,32.091,6.17
2014-06-02 07:00,32.240,25.354,32.062,6.15
2014-06-02 08:00,32.180,25.301,32.047,6.20
2014-06-02 09:00,32.199,25.312,32.088,6.22
2014-06-02 10:00,32.150,25.267,32.087,6.28
2014-06-02 11:00,32.087,25.220,32.019,6.26
2014-06-02 12:00,32.091,25.222,32.028,6.27
2014-06-02 13:00,32.069,25.201,32.036,6.30
2014-06-02 14:00,32.129,25.258,32.022,6.22
2014-06-02 15:00,32.172,25.285,32.108,6.28
2014-06-02 16:00,32.217,25.326,32.113,6.24
2014-06-02 17:00,32.195,25.293,32.199,6.36
2014-06-02 18:00,32.216,25.322,32.131,6.26
2014-06-02 19:00,32.198,25.314,32.074,6.21
2014-06-02 20:00,32.218,25.316,32.181,6.31
2014-06-02 21:00,32.214,25.315,32.167,6.30
2014-06-02 22:00,32.150,25.275,32.035,6.21
2014-06-02 23:00,32.096,25.229,32.010,6.24
2014-06-03 00:00,32.053,25.189,32.014,6.29
2014-06-03 01:00,32.068,25.206,31.994,6.25
2014-06-03 02:00,32.050,25.189,31.995,6.27
2014-06-03 03:00,32.056,25.194,31.995,6.27
2014-06-03 04:00,32.075,25.209,32.013,6.27
2014-06-03 05:00,32.051,25.187,32.015,6.30
2014-06-03 06:00,32.105,25.212,32.180,6.43
2014-06-03 07:00,32.121,25.243,32.074,6.29
2014-06-03 08:00,32.138,25.258,32.077,6.28
2014-06-03 09:00,32.130,25.260,32.012,6.21
2014-06-03 10:00,32.078,25.216,31.984,6.23
2014-06-03 11:00,32.024,25.169,31.967,6.27
2014-06-03 12:00,32.015,25.161,31.962,6.27
2014-06-03 13:00,32.000,25.148,31.960,6.28
2014-06-03 14:00,32.036,25.179,31.971,6.26
2014-06-03 15:00,32.054,25.195,31.976,6.25
2014-06-03 16:00,32.064,25.204,31.980,6.24
2014-06-03 17:00,32.047,25.190,31.972,6.25
2014-06-03 18:00,32.067,25.206,31.981,6.24
2014-06-03 19:00,32.027,25.172,31.966,6.26
2014-06-03 20:00,32.037,25.180,31.969,6.26
2014-06-03 21:00,32.034,25.179,31.967,6.26
2014-06-03 22:00,32.037,25.180,31.972,6.26
2014-06-03 23:00,32.018,25.163,31.972,6.28
2014-06-04 00:00,31.993,25.144,31.944,6.27
2014-06-04 01:00,32.010,25.159,31.954,6.27
2014-06-04 02:00,32.021,25.168,31.958,6.26
2014-06-04 03:00,31.978,25.123,31.993,6.35
2014-06-04 04:00,32.011,25.156,31.975,6.29
2014-06-04 05:00,31.973,25.120,31.984,6.34
2014-06-04 06:00,31.959,25.113,31.947,6.31
2014-06-04 07:00,31.963,25.116,31.947,6.31
2014-06-04 08:00,31.991,25.133,32.003,6.35
2014-06-04 09:00,32.019,25.160,31.999,6.31
2014-06-04 10:00,32.013,25.159,31.969,6.28
2014-06-04 11:00,31.970,25.125,31.930,6.28
2014-06-04 12:00,31.980,25.132,31.947,6.29
2014-06-04 13:00,31.980,25.132,31.939,6.28
2014-06-04 14:00,31.976,25.129,31.937,6.28
2014-06-04 15:00,32.116,25.247,32.012,6.22
2014-06-04 16:00,32.043,25.186,31.971,6.25
2014-06-04 17:00,31.956,25.113,31.921,6.29
2014-06-04 18:00,31.993,25.144,31.948,6.28
2014-06-04 19:00,31.928,25.089,31.913,6.31
2014-06-04 20:00,31.957,25.112,31.932,6.30
2014-06-04 21:00,32.010,25.158,31.951,6.26
2014-06-04 22:00,32.120,25.250,32.016,6.22
2014-06-04 23:00,32.155,25.280,32.035,6.21
2014-06-05 00:00,32.190,25.310,32.045,6.18
2014-06-05 01:00,32.138,25.269,31.999,6.18
2014-06-05 02:00,32.115,25.249,31.991,6.20
2014-06-05 03:00,32.204,25.323,32.051,6.18
2014-06-05 04:00,32.186,25.308,32.037,6.18
2014-06-05 05:00,32.148,25.276,32.012,6.19
2014-06-05 06:00,32.092,25.231,31.971,6.20
2014-06-05 07:00,32.118,25.252,31.992,6.20
2014-06-05 08:00,32.105,25.242,31.977,6.19
2014-06-05 09:00,32.145,25.274,32.008,6.19
2014-06-05 10:00,32.182,25.305,32.032,6.18
2014-06-05 11:00,32.208,25.326,32.052,6.17
2014-06-05 12:00,32.207,25.319,32.096,6.23
2014-06-05 13:00,32.212,25.321,32.111,6.24
2014-06-05 14:00,32.188,25.293,32.157,6.32
2014-06-05 15:00,32.143,25.255,32.130,6.33
2014-06-05 16:00,32.111,25.226,32.123,6.36
2014-06-05 17:00,32.059,25.178,32.129,6.42
2014-06-05 18:00,32.095,25.211,32.130,6.38
2014-06-05 19:00,32.164,25.272,32.147,6.33
2014-06-05 20:00,32.090,25.201,32.165,6.43
2014-06-05 21:00,32.055,25.177,32.109,6.40
2014-06-05 22:00,32.056,25.178,32.111,6.40
2014-06-05 23:00,31.984,25.135,31.947,6.29
2014-06-06 00:00,32.065,25.195,32.052,6.32
2014-06-06 01:00,32.076,25.207,32.037,6.30
2014-06-06 02:00,32.045,25.182,32.008,6.29
2014-06-06 03:00,31.978,25.129,31.952,6.30
2014-06-06 04:00,31.997,25.145,31.966,6.30
2014-06-06 05:00,31.977,25.128,31.952,6.30
2014-06-06 06:00,31.964,25.118,31.943,6.30
2014-06-06 07:00,31.957,25.112,31.939,6.31
2014-06-06 08:00,31.981,25.132,31.954,6.30
2014-06-06 09:00,31.969,25.121,31.945,6.30
2014-06-06 10:00,31.989,25.135,31.984,6.32
2014-06-06 11:00,32.085,25.205,32.109,6.37
2014-06-06 12:00,32.042,25.169,32.083,6.39
2014-06-06 13:00,32.067,25.186,32.122,6.41
2014-06-06 14:00,32.068,25.188,32.113,6.39
2014-06-06 15:00,32.007,25.121,32.184,6.54
2014-06-06 16:00,32.007,25.122,32.183,6.54
2014-06-06 17:00,31.971,25.091,32.169,6.56
2014-06-06 18:00,31.962,25.085,32.151,6.55
2014-06-06 19:00,32.048,25.174,32.083,6.38
2014-06-06 20:00,32.054,25.181,32.075,6.36
2014-06-06 21:00,32.114,25.227,32.135,6.37
2014-06-06 22:00,32.144,25.253,32.153,6.36
2014-06-06 23:00,32.210,25.303,32.217,6.36
2014-06-07 00:00,32.224,25.315,32.233,6.37
2014-06-07 01:00,32.176,25.275,32.196,6.38
2014-06-07 02:00,32.111,25.221,32.158,6.40
2014-06-07 03:00,32.069,25.190,32.109,6.39
2014-06-07 04:00,32.029,25.148,32.142,6.47
2014-06-07 05:00,31.999,25.130,32.074,6.42
2014-06-07 06:00,31.971,25.114,32.011,6.38
2014-06-07 07:00,32.013,25.134,32.138,6.48
2014-06-07 08:00,32.156,25.169,32.780,7.08
2014-06-07 09:00,32.057,25.095,32.663,7.05
2014-06-07 10:00,32.128,25.150,32.728,7.05
2014-06-07 11:00,32.125,25.159,32.656,6.97
2014-06-07 12:00,32.111,25.138,32.704,7.04
2014-06-07 13:00,32.194,25.211,32.737,6.99
2014-06-07 14:00,32.128,25.168,32.618,6.92
2014-06-07 15:00,32.015,25.128,32.187,6.54
2014-06-07 16:00,31.977,25.094,32.180,6.57
2014-06-07 17:00,31.977,25.080,32.275,6.68
2014-06-07 18:00,32.022,25.142,32.136,6.47
2014-06-07 19:00,32.104,25.170,32.455,6.76
2014-06-07 20:00,32.179,25.205,32.681,6.94
2014-06-07 21:00,32.136,25.176,32.614,6.91
2014-06-07 22:00,32.130,25.181,32.544,6.83
2014-06-07 23:00,31.986,25.067,32.415,6.84
2014-06-08 00:00,32.012,25.088,32.436,6.83
2014-06-08 01:00,31.956,25.058,32.289,6.72
2014-06-08 02:00,31.947,25.076,32.116,6.53
2014-06-08 03:00,31.946,25.073,32.129,6.54
2014-06-08 04:00,31.880,25.033,31.992,6.45
2014-06-08 05:00,31.942,25.081,32.057,6.46
2014-06-08 06:00,31.889,25.043,31.976,6.42
2014-06-08 07:00,31.973,25.108,32.058,6.43
2014-06-08 08:00,31.891,25.045,31.982,6.43
2014-06-08 09:00,31.981,25.107,32.118,6.49
2014-06-08 10:00,32.095,25.173,32.383,6.68
2014-06-08 11:00,32.012,25.127,32.176,6.53
2014-06-08 12:00,31.983,25.109,32.119,6.49
2014-06-08 13:00,32.014,25.132,32.153,6.50
2014-06-08 14:00,32.003,25.122,32.157,6.51
2014-06-08 15:00,31.998,25.116,32.163,6.53
2014-06-08 16:00,31.948,25.073,32.148,6.56
2014-06-08 17:00,31.967,25.086,32.172,6.57
2014-06-08 18:00,32.055,25.158,32.240,6.56
2014-06-08 19:00,32.055,25.137,32.376,6.72
2014-06-08 20:00,31.992,25.086,32.329,6.73
2014-06-08 21:00,32.062,25.136,32.428,6.77
2014-06-08 22:00,32.058,25.131,32.428,6.77
2014-06-08 23:00,32.077,25.150,32.424,6.75
2014-06-09 00:00,32.094,25.168,32.411,6.72
2014-06-09 01:00,32.154,25.231,32.358,6.59
2014-06-09 02:00,32.110,25.188,32.378,6.66
2014-06-09 03:00,32.174,25.247,32.379,6.59
2014-06-09 04:00,32.232,25.292,32.432,6.59
2014-06-09 05:00,32.135,25.187,32.530,6.81
2014-06-09 06:00,32.114,25.172,32.508,6.81
2014-06-09 07:00,32.220,25.281,32.435,6.61
2014-06-09 08:00,32.198,25.255,32.474,6.68
2014-06-09 09:00,32.189,25.242,32.497,6.72
2014-06-09 10:00,32.268,25.323,32.444,6.57
2014-06-09 11:00,32.156,25.206,32.538,6.80
2014-06-09 12:00,32.161,25.205,32.569,6.83
2014-06-09 13:00,32.126,25.185,32.491,6.78
2014-06-09 14:00,32.224,25.278,32.476,6.65
2014-06-09 15:00,32.167,25.230,32.442,6.67
2014-06-09 16:00,32.236,25.294,32.447,6.61
2014-06-09 17:00,32.214,25.275,32.439,6.62
2014-06-09 18:00,32.189,25.250,32.445,6.65
2014-06-09 19:00,32.282,25.336,32.447,6.56
2014-06-09 20:00,32.214,25.275,32.436,6.62
2014-06-09 21:00,32.236,25.296,32.430,6.59
2014-06-09 22:00,32.288,25.343,32.443,6.55
2014-06-09 23:00,32.192,25.254,32.444,6.65
2014-06-10 00:00,32.186,25.248,32.448,6.66
2014-06-10 01:00,32.214,25.276,32.435,6.61
2014-06-10 02:00,32.203,25.270,32.407,6.59
2014-06-10 03:00,32.147,25.223,32.372,6.61
2014-06-10 04:00,32.191,25.263,32.377,6.57
2014-06-10 05:00,32.149,25.227,32.354,6.59
2014-06-10 06:00,32.117,25.198,32.348,6.62
2014-06-10 07:00,32.143,25.221,32.356,6.60
2014-06-10 08:00,32.159,25.236,32.361,6.59
2014-06-10 09:00,32.162,25.238,32.359,6.58
2014-06-10 10:00,32.179,25.254,32.361,6.57
2014-06-10 11:00,32.187,25.261,32.366,6.56
2014-06-10 12:00,32.186,25.259,32.367,6.57
2014-06-10 13:00,32.181,25.255,32.367,6.57
2014-06-10 14:00,32.151,25.228,32.364,6.60
2014-06-10 15:00,32.126,25.204,32.367,6.63
2014-06-10 16:00,32.139,25.216,32.371,6.62
2014-06-10 17:00,32.096,25.176,32.367,6.66
2014-06-10 18:00,32.114,25.192,32.368,6.64
2014-06-10 19:00,32.142,25.219,32.366,6.61
2014-06-10 20:00,32.072,25.156,32.354,6.67
2014-06-10 21:00,32.120,25.198,32.366,6.64
2014-06-10 22:00,32.132,25.209,32.374,6.63
2014-06-10 23:00,32.110,25.190,32.365,6.64
2014-06-11 00:00,32.168,25.240,32.384,6.61
2014-06-11 01:00,32.155,25.229,32.381,6.61
2014-06-11 02:00,32.111,25.191,32.364,6.64
2014-06-11 03:00,32.093,25.172,32.375,6.67
2014-06-11 04:00,32.104,25.184,32.368,6.65
2014-06-11 05:00,32.047,25.133,32.353,6.70
2014-06-11 06:00,32.134,25.211,32.368,6.62
2014-06-11 07:00,32.099,25.180,32.358,6.65
2014-06-11 08:00,32.118,25.198,32.356,6.62
2014-06-11 09:00,32.121,25.200,32.361,6.63
2014-06-11 10:00,32.135,25.212,32.369,6.62
2014-06-11 11:00,32.157,25.232,32.371,6.60
2014-06-11 12:00,32.113,25.191,32.375,6.65
2014-06-11 13:00,32.088,25.169,32.369,6.67
2014-06-11 14:00,32.080,25.162,32.366,6.68
2014-06-11 15:00,32.097,25.177,32.369,6.66
2014-06-11 16:00,32.091,25.171,32.365,6.66
2014-06-11 17:00,32.113,25.192,32.366,6.64
2014-06-11 18:00,32.081,25.165,32.353,6.66
2014-06-11 19:00,32.068,25.153,32.346,6.67
2014-06-11 20:00,32.130,25.209,32.358,6.61
2014-06-11 21:00,32.126,25.205,32.361,6.62
2014-06-11 22:00,32.141,25.218,32.363,6.61
2014-06-11 23:00,32.152,25.228,32.368,6.60
2014-06-12 00:00,32.153,25.229,32.369,6.60
2014-06-12 01:00,32.091,25.172,32.365,6.66
2014-06-12 02:00,32.127,25.204,32.369,6.63
2014-06-12 03:00,32.133,25.210,32.370,6.63
2014-06-12 04:00,32.110,25.190,32.366,6.64
2014-06-12 05:00,32.085,25.168,32.356,6.66
2014-06-12 06:00,32.083,25.165,32.357,6.66
2014-06-12 07:00,32.120,25.197,32.373,6.64
2014-06-12 08:00,32.097,25.174,32.387,6.68
2014-06-12 09:00,32.134,25.205,32.406,6.67
2014-06-12 10:00,31.730,24.809,32.540,7.26
2014-06-12 11:00,32.065,25.149,32.360,6.69
2014-06-12 12:00,32.088,25.169,32.365,6.67
2014-06-12 13:00,32.062,25.144,32.376,6.71
2014-06-12 14:00,32.128,25.204,32.375,6.64
2014-06-12 15:00,32.111,25.188,32.381,6.66
2014-06-12 16:00,32.097,25.176,32.376,6.67
2014-06-12 17:00,32.110,25.189,32.371,6.65
2014-06-12 18:00,32.122,25.199,32.373,6.64
2014-06-12 19:00,32.053,25.136,32.373,6.71
2014-06-12 20:00,32.077,25.153,32.402,6.72
2014-06-12 21:00,32.050,25.130,32.390,6.74
2014-06-12 22:00,32.002,25.088,32.377,6.77
2014-06-12 23:00,32.170,25.241,32.395,6.61
2014-06-13 00:00,32.028,25.110,32.386,6.76
2014-06-13 01:00,32.045,25.129,32.367,6.72
2014-06-13 02:00,32.078,25.159,32.366,6.68
2014-06-13 03:00,32.094,25.174,32.370,6.67
2014-06-13 04:00,32.093,25.173,32.367,6.66
2014-06-13 05:00,32.107,25.184,32.383,6.67
2014-06-13 06:00,32.052,25.132,32.388,6.73
2014-06-13 07:00,31.997,25.087,32.354,6.75
2014-06-13 08:00,32.034,25.120,32.360,6.72
2014-06-13 09:00,32.004,25.094,32.342,6.73
2014-06-13 10:00,32.050,25.132,32.373,6.72
2014-06-13 11:00,32.006,25.097,32.341,6.73
2014-06-13 12:00,32.009,25.098,32.353,6.74
2014-06-13 13:00,31.963,25.041,32.449,6.90
2014-06-13 14:00,32.001,25.088,32.370,6.77
2014-06-13 15:00,32.059,25.139,32.386,6.72
2014-06-13 16:00,32.089,25.167,32.387,6.69
2014-06-13 17:00,32.039,25.122,32.373,6.73
2014-06-13 18:00,32.019,25.103,32.377,6.76
2014-06-13 19:00,32.003,25.088,32.378,6.77
2014-06-13 20:00,31.959,25.056,32.323,6.76
2014-06-13 21:00,31.946,25.044,32.321,6.77
2014-06-13 22:00,31.910,25.012,32.315,6.80
2014-06-13 23:00,31.902,25.003,32.325,6.82
2014-06-14 00:00,31.935,25.035,32.318,6.78
2014-06-14 01:00,31.940,25.038,32.326,6.78
2014-06-14 02:00,31.948,25.045,32.327,6.77
2014-06-14 03:00,31.976,25.070,32.334,6.75
2014-06-14 04:00,31.953,25.050,32.330,6.77
2014-06-14 05:00,31.973,25.068,32.333,6.75
2014-06-14 06:00,31.942,25.040,32.325,6.78
2014-06-14 07:00,31.934,25.030,32.345,6.81
2014-06-14 08:00,31.931,25.025,32.362,6.83
2014-06-14 09:00,31.995,25.079,32.392,6.80
2014-06-14 10:00,32.048,25.127,32.396,6.75
2014-06-14 11:00,31.996,25.084,32.366,6.77
2014-06-14 12:00,32.028,25.111,32.381,6.75
2014-06-14 13:00,32.009,25.094,32.374,6.76
2014-06-14 14:00,32.013,25.099,32.371,6.76
2014-06-14 15:00,31.978,25.066,32.371,6.79
2014-06-14 16:00,31.951,25.043,32.365,6.81
2014-06-14 17:00,31.942,25.039,32.333,6.79
2014-06-14 18:00,31.976,25.066,32.364,6.79
2014-06-14 19:00,31.963,25.052,32.375,6.81
2014-06-14 20:00,31.943,25.034,32.371,6.83
2014-06-14 21:00,31.929,25.023,32.357,6.83
2014-06-14 22:00,31.920,25.012,32.375,6.86
2014-06-14 23:00,31.970,25.051,32.419,6.86
2014-06-15 00:00,31.983,25.040,32.569,7.02
2014-06-15 01:00,31.941,24.994,32.616,7.12
2014-06-15 02:00,32.043,25.116,32.440,6.80
2014-06-15 03:00,32.064,25.142,32.399,6.73
2014-06-15 04:00,32.062,25.139,32.400,6.74
2014-06-15 05:00,32.018,25.082,32.510,6.91
2014-06-15 06:00,32.032,25.101,32.469,6.85
2014-06-15 07:00,32.028,25.091,32.513,6.91
2014-06-15 08:00,31.952,25.011,32.575,7.06
2014-06-15 09:00,31.996,25.049,32.590,7.03
2014-06-15 10:00,31.950,25.022,32.488,6.96
2014-06-15 11:00,32.054,25.118,32.493,6.85
2014-06-15 12:00,32.046,25.107,32.516,6.89
2014-06-15 13:00,32.062,25.123,32.509,6.86
2014-06-15 14:00,32.064,25.126,32.504,6.86
2014-06-15 15:00,32.112,25.176,32.462,6.76
2014-06-15 16:00,32.103,25.169,32.459,6.76
2014-06-15 17:00,32.003,25.065,32.532,6.95
2014-06-15 18:00,32.015,25.086,32.472,6.87
2014-06-15 19:00,32.024,25.086,32.519,6.92
2014-06-15 20:00,32.033,25.085,32.584,6.98
2014-06-15 21:00,31.961,25.040,32.440,6.89
2014-06-15 22:00,32.037,25.113,32.419,6.79
2014-06-15 23:00,32.069,25.144,32.419,6.75
2014-06-16 00:00,32.016,25.093,32.424,6.81
2014-06-16 01:00,32.031,25.108,32.417,6.79
2014-06-16 02:00,32.023,25.102,32.412,6.79
2014-06-16 03:00,32.073,25.142,32.455,6.79
2014-06-16 04:00,32.061,25.128,32.471,6.82
2014-06-16 05:00,32.041,25.104,32.502,6.88
2014-06-16 06:00,32.021,25.082,32.532,6.93
2014-06-16 07:00,32.012,25.069,32.563,6.98
2014-06-16 08:00,32.002,25.038,32.698,7.15
2014-06-16 09:00,32.016,25.049,32.711,7.15
2014-06-16 10:00,31.987,25.020,32.727,7.20
2014-06-16 11:00,31.983,25.026,32.663,7.13
2014-06-16 12:00,31.994,25.033,32.682,7.14
2014-06-16 13:00,32.035,25.067,32.711,7.13
2014-06-16 14:00,32.007,25.044,32.685,7.13
2014-06-16 15:00,32.015,25.064,32.607,7.03
2014-06-16 16:00,31.983,25.027,32.655,7.12
2014-06-16 17:00,31.968,25.010,32.675,7.16
2014-06-16 18:00,31.983,25.027,32.655,7.12
2014-06-16 19:00,32.022,25.065,32.648,7.07
2014-06-16 20:00,32.012,25.049,32.690,7.13
2014-06-16 21:00,31.877,24.927,32.659,7.24
2014-06-16 22:00,31.924,24.977,32.626,7.15
2014-06-16 23:00,31.936,24.992,32.603,7.11
2014-06-17 00:00,32.031,25.085,32.569,6.97
2014-06-17 01:00,31.954,25.012,32.577,7.06
2014-06-17 02:00,32.025,25.081,32.563,6.97
2014-06-17 03:00,32.022,25.078,32.563,6.97
2014-06-17 04:00,32.048,25.103,32.556,6.93
2014-06-17 05:00,32.062,25.097,32.676,7.06
2014-06-17 06:00,32.082,25.057,33.055,7.48
2014-06-17 07:00,32.147,25.106,33.124,7.49
2014-06-17 08:00,32.093,25.130,32.651,7.00
2014-06-17 09:00,32.065,25.118,32.563,6.92
2014-06-17 10:00,32.048,25.007,33.160,7.64
2014-06-17 11:00,32.005,25.051,32.632,7.07
2014-06-17 12:00,31.987,25.043,32.582,7.03
2014-06-17 13:00,32.021,25.079,32.551,6.96
2014-06-17 14:00,32.024,25.080,32.558,6.96
2014-06-17 15:00,31.991,25.048,32.568,7.01
2014-06-17 16:00,32.003,25.057,32.579,7.01
2014-06-17 17:00,32.064,25.105,32.635,7.01
2014-06-17 18:00,32.022,25.070,32.614,7.03
2014-06-17 19:00,32.047,25.091,32.628,7.02
2014-06-17 20:00,32.050,25.097,32.606,6.99
2014-06-17 21:00,32.121,25.163,32.611,6.92
2014-06-17 22:00,32.094,25.133,32.641,6.98
2014-06-17 23:00,32.122,25.158,32.645,6.96
2014-06-18 00:00,32.131,25.147,32.765,7.09
2014-06-18 01:00,32.202,25.215,32.753,7.00
2014-06-18 02:00,32.269,25.265,32.832,7.02
2014-06-18 03:00,32.141,25.131,32.929,7.27
2014-06-18 04:00,32.140,25.128,32.945,7.29
2014-06-18 05:00,32.251,25.246,32.850,7.06
2014-06-18 06:00,32.256,25.232,32.966,7.19
2014-06-18 07:00,32.278,25.219,33.185,7.42
2014-06-18 08:00,32.305,25.244,33.184,7.39
2014-06-18 09:00,32.279,25.219,33.186,7.42
2014-06-18 10:00,32.267,25.204,33.209,7.46
2014-06-18 11:00,32.202,25.156,33.132,7.44
2014-06-18 12:00,32.216,25.163,33.171,7.47
2014-06-18 13:00,32.232,25.167,33.237,7.53
2014-06-18 14:00,32.239,25.175,33.226,7.51
2014-06-18 15:00,32.287,25.235,33.133,7.35
2014-06-18 16:00,32.205,25.142,33.238,7.56
2014-06-18 17:00,32.342,25.290,33.115,7.27
2014-06-18 18:00,32.337,25.282,33.127,7.29
2014-06-18 19:00,32.311,25.262,33.103,7.29
2014-06-18 20:00,32.325,25.275,33.108,7.28
2014-06-18 21:00,32.326,25.274,33.117,7.29
2014-06-18 22:00,32.242,25.207,33.048,7.30
2014-06-18 23:00,32.251,25.207,33.100,7.35
2014-06-19 00:00,32.230,25.176,33.166,7.45
2014-06-19 01:00,32.196,25.141,33.186,7.51
2014-06-19 02:00,32.161,25.107,33.197,7.56
2014-06-19 03:00,32.169,25.120,33.161,7.51
2014-06-19 04:00,32.177,25.127,33.169,7.51
2014-06-19 05:00,32.215,25.162,33.170,7.47
2014-06-19 06:00,32.222,25.168,33.176,7.47
2014-06-19 07:00,32.231,25.177,33.167,7.45
2014-06-19 08:00,32.171,25.131,33.112,7.45
2014-06-19 09:00,32.167,25.130,33.091,7.43
2014-06-19 10:00,32.148,25.115,33.073,7.43
2014-06-19 11:00,32.093,25.061,33.091,7.51
2014-06-19 12:00,32.051,25.026,33.060,7.52
2014-06-19 13:00,32.003,25.020,32.819,7.29
2014-06-19 14:00,32.101,25.094,32.926,7.31
2014-06-19 15:00,32.121,25.129,32.825,7.17
2014-06-19 16:00,32.212,25.182,33.029,7.31
2014-06-19 17:00,32.144,25.137,32.915,7.25
2014-06-19 18:00,32.161,25.149,32.930,7.25
2014-06-19 19:00,32.183,25.159,33.002,7.31
2014-06-19 20:00,32.180,25.156,32.999,7.31
2014-06-19 21:00,32.196,25.169,33.014,7.31
2014-06-19 22:00,32.200,25.168,33.044,7.34
2014-06-19 23:00,32.185,25.153,33.056,7.37
2014-06-20 00:00,32.165,25.118,33.158,7.51
2014-06-20 01:00,32.187,25.135,33.178,7.51
2014-06-20 02:00,32.151,25.129,32.998,7.34
2014-06-20 03:00,32.135,25.115,33.001,7.36
2014-06-20 04:00,32.120,25.100,33.004,7.38
2014-06-20 05:00,32.123,25.105,32.990,7.36
2014-06-20 06:00,32.116,25.102,32.966,7.34
2014-06-20 07:00,32.234,25.191,33.101,7.37
2014-06-20 08:00,32.250,25.206,33.099,7.35
2014-06-20 09:00,32.169,25.143,33.024,7.35
2014-06-20 10:00,32.209,25.175,33.052,7.34
2014-06-20 11:00,32.189,25.167,32.991,7.29
2014-06-20 12:00,32.118,25.105,32.959,7.33
2014-06-20 13:00,32.078,25.070,32.948,7.36
2014-06-20 14:00,32.058,25.052,32.938,7.37
2014-06-20 15:00,32.052,25.047,32.932,7.37
2014-06-20 16:00,32.060,25.055,32.931,7.36
2014-06-20 17:00,32.092,25.083,32.944,7.34
2014-06-20 18:00,32.098,25.088,32.949,7.34
2014-06-20 19:00,32.179,25.151,33.024,7.34
2014-06-20 20:00,32.184,25.120,33.253,7.60
2014-06-20 21:00,32.244,25.204,33.076,7.33
2014-06-20 22:00,32.288,25.237,33.125,7.34
2014-06-20 23:00,32.352,25.294,33.141,7.29
2014-06-21 00:00,32.229,25.185,33.105,7.38
2014-06-21 01:00,32.386,25.327,33.138,7.25
2014-06-21 02:00,32.208,25.160,33.146,7.45
2014-06-21 03:00,32.222,25.165,33.193,7.49
2014-06-21 04:00,32.344,25.288,33.134,7.29
2014-06-21 05:00,32.352,25.287,33.184,7.34
2014-06-21 06:00,32.447,25.372,33.212,7.27
2014-06-21 07:00,32.268,25.204,33.219,7.47
2014-06-21 08:00,32.270,25.219,33.134,7.37
2014-06-21 09:00,32.240,25.136,33.478,7.80
2014-06-21 10:00,32.264,25.174,33.379,7.66
2014-06-21 11:00,32.350,25.287,33.183,7.34
2014-06-21 12:00,32.321,25.254,33.216,7.41
2014-06-21 13:00,32.370,25.309,33.158,7.29
2014-06-21 14:00,32.452,25.380,33.190,7.24
2014-06-21 15:00,32.357,25.300,33.137,7.28
2014-06-21 16:00,32.445,25.375,33.184,7.24
2014-06-21 17:00,32.415,25.348,33.173,7.26
2014-06-21 18:00,32.515,25.433,33.222,7.21
2014-06-21 19:00,32.479,25.405,33.189,7.21
2014-06-21 20:00,32.459,25.387,33.188,7.23
2014-06-21 21:00,32.430,25.364,33.161,7.23
2014-06-21 22:00,32.427,25.363,33.150,7.22
2014-06-21 23:00,32.302,25.251,33.121,7.32
2014-06-22 00:00,32.243,25.189,33.170,7.44
2014-06-22 01:00,32.222,25.159,33.228,7.53
2014-06-22 02:00,32.269,25.205,33.220,7.47
2014-06-22 03:00,32.322,25.261,33.174,7.36
2014-06-22 04:00,32.369,25.305,33.174,7.31
2014-06-22 05:00,32.476,25.402,33.195,7.22
2014-06-22 06:00,32.457,25.387,33.178,7.22
2014-06-22 07:00,32.485,25.408,33.203,7.22
2014-06-22 08:00,32.486,25.409,33.204,7.22
2014-06-22 09:00,32.497,25.418,33.214,7.22
2014-06-22 10:00,32.515,25.437,33.196,7.18
2014-06-22 11:00,32.495,25.422,33.178,7.18
2014-06-22 12:00,32.469,25.406,33.128,7.15
2014-06-22 13:00,32.417,25.359,33.115,7.19
2014-06-22 14:00,32.371,25.308,33.167,7.30
2014-06-22 15:00,32.350,25.300,33.096,7.24
2014-06-22 16:00,32.325,25.284,33.047,7.21
2014-06-22 17:00,32.359,25.313,33.061,7.19
2014-06-22 18:00,32.394,25.339,33.111,7.21
2014-06-22 19:00,32.427,25.370,33.107,7.17
2014-06-22 20:00,32.400,25.346,33.099,7.19
2014-06-22 21:00,32.440,25.374,33.153,7.21
2014-06-22 22:00,32.445,25.379,33.158,7.21
2014-06-22 23:00,32.453,25.387,33.157,7.20
2014-06-23 00:00,32.426,25.366,33.123,7.19
2014-06-23 01:00,32.462,25.394,33.156,7.19
2014-06-23 02:00,32.430,25.375,33.092,7.15
2014-06-23 03:00,32.409,25.355,33.099,7.18
2014-06-23 04:00,32.413,25.357,33.102,7.18
2014-06-23 05:00,32.397,25.343,33.096,7.19
2014-06-23 06:00,32.384,25.333,33.084,7.19
2014-06-23 07:00,32.385,25.334,33.085,7.19
2014-06-23 08:00,32.394,25.342,33.094,7.19
2014-06-23 09:00,32.396,25.342,33.095,7.19
2014-06-23 10:00,32.329,25.235,33.379,7.59
2014-06-23 11:00,32.404,25.334,33.198,7.30
2014-06-23 12:00,32.407,25.338,33.192,7.29
2014-06-23 13:00,32.410,25.345,33.160,7.25
2014-06-23 14:00,32.403,25.348,33.102,7.19
2014-06-23 15:00,32.387,25.335,33.096,7.20
2014-06-23 16:00,32.371,25.307,33.176,7.31